Year,Month,Day,Hour,Minute,Value (Times are PST for temperature in C)
2014,05,23,00,00,5.30
2014,05,23,00,04,5.30
2014,05,23,00,05,5.30
2014,05,23,00,06,5.30
2014,05,23,00,07,5.30
2014,05,23,00,08,5.30
2014,05,23,00,09,5.30
2014,05,23,00,10,5.30
2014,05,23,00,11,5.30
2014,05,23,00,12,5.30
2014,05,23,00,13,5.30
2014,05,23,00,14,5.30
2014,05,23,00,15,5.30
2014,05,23,00,19,5.30
2014,05,23,00,20,5.30
2014,05,23,00,21,5.30
2014,05,23,00,22,5.30
2014,05,23,00,23,5.30
2014,05,23,00,24,5.30
2014,05,23,00,25,5.30
2014,05,23,00,26,5.30
2014,05,23,00,27,5.30
2014,05,23,00,28,5.30
2014,05,23,00,29,5.30
2014,05,23,00,30,5.30
2014,05,23,00,34,5.30
2014,05,23,00,35,5.30
2014,05,23,00,36,5.30
2014,05,23,00,37,5.30
2014,05,23,00,38,5.30
2014,05,23,00,39,5.30
2014,05,23,00,40,5.30
2014,05,23,00,41,5.30
2014,05,23,00,42,5.30
2014,05,23,00,43,5.30
2014,05,23,00,44,5.30
2014,05,23,00,45,5.30
2014,05,23,00,49,5.40
2014,05,23,00,50,5.40
2014,05,23,00,51,5.40
2014,05,23,00,52,5.40
2014,05,23,00,53,5.40
2014,05,23,00,54,5.40
2014,05,23,00,55,5.40
2014,05,23,00,56,5.40
2014,05,23,00,57,5.40
2014,05,23,00,58,5.40
2014,05,23,00,59,5.40
2014,05,23,01,00,5.40
2014,05,23,01,04,5.30
2014,05,23,01,05,5.30
2014,05,23,01,06,5.30
2014,05,23,01,07,5.30
2014,05,23,01,08,5.30
2014,05,23,01,09,5.30
2014,05,23,01,10,5.30
2014,05,23,01,11,5.30
2014,05,23,01,12,5.30
2014,05,23,01,13,5.30
2014,05,23,01,14,5.30
2014,05,23,01,15,5.30
2014,05,23,01,19,5.30
2014,05,23,01,20,5.30
2014,05,23,01,21,5.30
2014,05,23,01,22,5.30
2014,05,23,01,23,5.30
2014,05,23,01,24,5.30
2014,05,23,01,25,5.30
2014,05,23,01,26,5.30
2014,05,23,01,27,5.30
2014,05,23,01,28,5.30
2014,05,23,01,29,5.30
2014,05,23,01,30,5.30
2014,05,23,01,34,5.30
2014,05,23,01,35,5.30
2014,05,23,01,36,5.30
2014,05,23,01,37,5.30
2014,05,23,01,38,5.30
2014,05,23,01,39,5.30
2014,05,23,01,40,5.30
2014,05,23,01,41,5.30
2014,05,23,01,42,5.30
2014,05,23,01,43,5.30
2014,05,23,01,44,5.30
2014,05,23,01,45,5.30
2014,05,23,01,49,5.40
2014,05,23,01,50,5.40
2014,05,23,01,51,5.40
2014,05,23,01,52,5.40
2014,05,23,01,53,5.40
2014,05,23,01,54,5.40
2014,05,23,01,55,5.40
2014,05,23,01,56,5.40
2014,05,23,01,57,5.40
2014,05,23,01,58,5.40
2014,05,23,01,59,5.40
2014,05,23,02,00,5.40
2014,05,23,02,04,5.50
2014,05,23,02,05,5.50
2014,05,23,02,06,5.50
2014,05,23,02,07,5.50
2014,05,23,02,08,5.50
2014,05,23,02,09,5.50
2014,05,23,02,10,5.50
2014,05,23,02,11,5.50
2014,05,23,02,12,5.50
2014,05,23,02,13,5.50
2014,05,23,02,14,5.50
2014,05,23,02,15,5.50
2014,05,23,02,19,5.50
2014,05,23,02,20,5.50
2014,05,23,02,21,5.50
2014,05,23,02,22,5.50
2014,05,23,02,23,5.50
2014,05,23,02,24,5.50
2014,05,23,02,25,5.50
2014,05,23,02,26,5.50
2014,05,23,02,27,5.50
2014,05,23,02,28,5.50
2014,05,23,02,29,5.50
2014,05,23,02,30,5.50
2014,05,23,02,34,5.40
2014,05,23,02,35,5.40
2014,05,23,02,36,5.40
2014,05,23,02,37,5.40
2014,05,23,02,38,5.40
2014,05,23,02,39,5.40
2014,05,23,02,40,5.40
2014,05,23,02,41,5.40
2014,05,23,02,42,5.40
2014,05,23,02,43,5.40
2014,05,23,02,44,5.40
2014,05,23,02,45,5.40
2014,05,23,02,54,5.40
2014,05,23,02,55,5.40
2014,05,23,02,56,5.40
2014,05,23,02,57,5.40
2014,05,23,02,58,5.40
2014,05,23,02,59,5.40
2014,05,23,03,00,5.40
2014,05,23,03,04,5.40
2014,05,23,03,05,5.40
2014,05,23,03,06,5.40
2014,05,23,03,07,5.40
2014,05,23,03,08,5.40
2014,05,23,03,09,5.40
2014,05,23,03,10,5.40
2014,05,23,03,11,5.40
2014,05,23,03,12,5.40
2014,05,23,03,13,5.40
2014,05,23,03,14,5.40
2014,05,23,03,15,5.40
2014,05,23,03,19,5.30
2014,05,23,03,20,5.30
2014,05,23,03,21,5.30
2014,05,23,03,22,5.30
2014,05,23,03,23,5.30
2014,05,23,03,24,5.30
2014,05,23,03,25,5.30
2014,05,23,03,26,5.30
2014,05,23,03,27,5.30
2014,05,23,03,28,5.30
2014,05,23,03,29,5.30
2014,05,23,03,30,5.30
2014,05,23,03,34,5.30
2014,05,23,03,35,5.30
2014,05,23,03,36,5.30
2014,05,23,03,37,5.30
2014,05,23,03,38,5.30
2014,05,23,03,39,5.30
2014,05,23,03,40,5.30
2014,05,23,03,41,5.30
2014,05,23,03,42,5.30
2014,05,23,03,43,5.30
2014,05,23,03,44,5.30
2014,05,23,03,45,5.30
2014,05,23,03,49,5.40
2014,05,23,03,50,5.40
2014,05,23,03,51,5.40
2014,05,23,03,52,5.40
2014,05,23,03,53,5.40
2014,05,23,03,54,5.40
2014,05,23,03,55,5.40
2014,05,23,03,56,5.40
2014,05,23,03,57,5.40
2014,05,23,03,58,5.40
2014,05,23,03,59,5.40
2014,05,23,04,00,5.40
2014,05,23,04,04,5.50
2014,05,23,04,05,5.50
2014,05,23,04,06,5.50
2014,05,23,04,07,5.50
2014,05,23,04,08,5.50
2014,05,23,04,09,5.50
2014,05,23,04,10,5.50
2014,05,23,04,11,5.50
2014,05,23,04,12,5.50
2014,05,23,04,13,5.50
2014,05,23,04,14,5.50
2014,05,23,04,15,5.50
2014,05,23,04,19,5.30
2014,05,23,04,20,5.30
2014,05,23,04,21,5.30
2014,05,23,04,22,5.30
2014,05,23,04,23,5.30
2014,05,23,04,24,5.30
2014,05,23,04,25,5.30
2014,05,23,04,26,5.30
2014,05,23,04,27,5.30
2014,05,23,04,28,5.30
2014,05,23,04,29,5.30
2014,05,23,04,30,5.30
2014,05,23,04,34,5.30
2014,05,23,04,35,5.30
2014,05,23,04,36,5.30
2014,05,23,04,37,5.30
2014,05,23,04,38,5.30
2014,05,23,04,39,5.30
2014,05,23,04,40,5.30
2014,05,23,04,41,5.30
2014,05,23,04,42,5.30
2014,05,23,04,43,5.30
2014,05,23,04,44,5.30
2014,05,23,04,45,5.30
2014,05,23,04,49,5.10
2014,05,23,04,50,5.10
2014,05,23,04,51,5.10
2014,05,23,04,52,5.10
2014,05,23,04,53,5.10
2014,05,23,04,54,5.10
2014,05,23,04,55,5.10
2014,05,23,04,56,5.10
2014,05,23,04,57,5.10
2014,05,23,04,58,5.10
2014,05,23,04,59,5.10
2014,05,23,05,00,5.10
2014,05,23,05,04,5.10
2014,05,23,05,05,5.10
2014,05,23,05,06,5.10
2014,05,23,05,07,5.10
2014,05,23,05,08,5.10
2014,05,23,05,09,5.10
2014,05,23,05,10,5.10
2014,05,23,05,11,5.10
2014,05,23,05,19,5.10
2014,05,23,05,20,5.10
2014,05,23,05,21,5.10
2014,05,23,05,22,5.10
2014,05,23,05,23,5.10
2014,05,23,05,24,5.10
2014,05,23,05,25,5.10
2014,05,23,05,26,5.10
2014,05,23,05,27,5.10
2014,05,23,05,28,5.10
2014,05,23,05,29,5.10
2014,05,23,05,30,5.10
2014,05,23,05,34,5.10
2014,05,23,05,35,5.10
2014,05,23,05,36,5.10
2014,05,23,05,37,5.10
2014,05,23,05,38,5.10
2014,05,23,05,39,5.10
2014,05,23,05,40,5.10
2014,05,23,05,41,5.10
2014,05,23,05,42,5.10
2014,05,23,05,43,5.10
2014,05,23,05,44,5.10
2014,05,23,05,45,5.10
2014,05,23,05,49,5.10
2014,05,23,05,50,5.10
2014,05,23,05,51,5.10
2014,05,23,05,52,5.10
2014,05,23,05,53,5.10
2014,05,23,05,54,5.10
2014,05,23,05,55,5.10
2014,05,23,05,56,5.10
2014,05,23,05,57,5.10
2014,05,23,05,58,5.10
2014,05,23,05,59,5.10
2014,05,23,06,00,5.10
2014,05,23,06,04,5.10
2014,05,23,06,05,5.10
2014,05,23,06,06,5.10
2014,05,23,06,07,5.10
2014,05,23,06,08,5.10
2014,05,23,06,09,5.10
2014,05,23,06,10,5.10
2014,05,23,06,11,5.10
2014,05,23,06,12,5.10
2014,05,23,06,13,5.10
2014,05,23,06,14,5.10
2014,05,23,06,15,5.10
2014,05,23,06,19,5.00
2014,05,23,06,20,5.00
2014,05,23,06,21,5.00
2014,05,23,06,22,5.00
2014,05,23,06,23,5.00
2014,05,23,06,24,5.00
2014,05,23,06,25,5.00
2014,05,23,06,26,5.00
2014,05,23,06,27,5.00
2014,05,23,06,28,5.00
2014,05,23,06,29,5.00
2014,05,23,06,30,5.00
2014,05,23,06,34,5.10
2014,05,23,06,35,5.10
2014,05,23,06,36,5.10
2014,05,23,06,37,5.10
2014,05,23,06,38,5.10
2014,05,23,06,39,5.10
2014,05,23,06,40,5.10
2014,05,23,06,41,5.10
2014,05,23,06,42,5.10
2014,05,23,06,43,5.10
2014,05,23,06,44,5.10
2014,05,23,06,45,5.10
2014,05,23,06,49,5.20
2014,05,23,06,50,5.20
2014,05,23,06,51,5.20
2014,05,23,06,52,5.20
2014,05,23,06,53,5.20
2014,05,23,06,54,5.20
2014,05,23,06,55,5.20
2014,05,23,06,56,5.20
2014,05,23,06,57,5.20
2014,05,23,06,58,5.20
2014,05,23,06,59,5.20
2014,05,23,07,00,5.20
2014,05,23,07,04,5.20
2014,05,23,07,05,5.20
2014,05,23,07,06,5.20
2014,05,23,07,07,5.20
2014,05,23,07,08,5.20
2014,05,23,07,09,5.20
2014,05,23,07,10,5.20
2014,05,23,07,11,5.20
2014,05,23,07,12,5.20
2014,05,23,07,13,5.20
2014,05,23,07,14,5.20
2014,05,23,07,15,5.20
2014,05,23,07,19,5.30
2014,05,23,07,20,5.30
2014,05,23,07,21,5.30
2014,05,23,07,22,5.30
2014,05,23,07,23,5.30
2014,05,23,07,24,5.30
2014,05,23,07,25,5.30
2014,05,23,07,26,5.30
2014,05,23,07,27,5.30
2014,05,23,07,28,5.30
2014,05,23,07,29,5.30
2014,05,23,07,30,5.30
2014,05,23,07,34,5.40
2014,05,23,07,35,5.40
2014,05,23,07,36,5.40
2014,05,23,07,37,5.40
2014,05,23,07,38,5.40
2014,05,23,07,39,5.40
2014,05,23,07,40,5.40
2014,05,23,07,41,5.40
2014,05,23,07,42,5.40
2014,05,23,07,43,5.40
2014,05,23,07,44,5.40
2014,05,23,07,45,5.40
2014,05,23,07,49,5.40
2014,05,23,07,50,5.40
2014,05,23,07,51,5.40
2014,05,23,07,52,5.40
2014,05,23,07,53,5.40
2014,05,23,07,54,5.40
2014,05,23,07,55,5.40
2014,05,23,07,56,5.40
2014,05,23,07,57,5.40
2014,05,23,07,58,5.40
2014,05,23,07,59,5.40
2014,05,23,08,00,5.40
2014,05,23,08,04,5.40
2014,05,23,08,05,5.40
2014,05,23,08,06,5.40
2014,05,23,08,07,5.40
2014,05,23,08,08,5.40
2014,05,23,08,09,5.40
2014,05,23,08,10,5.40
2014,05,23,08,11,5.40
2014,05,23,08,12,5.40
2014,05,23,08,13,5.40
2014,05,23,08,14,5.40
2014,05,23,08,15,5.40
2014,05,23,08,19,5.40
2014,05,23,08,20,5.40
2014,05,23,08,21,5.40
2014,05,23,08,22,5.40
2014,05,23,08,23,5.40
2014,05,23,08,24,5.40
2014,05,23,08,25,5.40
2014,05,23,08,26,5.40
2014,05,23,08,27,5.40
2014,05,23,08,28,5.40
2014,05,23,08,29,5.40
2014,05,23,08,30,5.40
2014,05,23,08,34,5.40
2014,05,23,08,35,5.40
2014,05,23,08,36,5.40
2014,05,23,08,37,5.40
2014,05,23,08,38,5.40
2014,05,23,08,39,5.40
2014,05,23,08,40,5.40
2014,05,23,08,41,5.40
2014,05,23,08,42,5.40
2014,05,23,08,43,5.40
2014,05,23,08,44,5.40
2014,05,23,08,45,5.40
2014,05,23,08,49,6.00
2014,05,23,08,50,6.00
2014,05,23,08,51,6.00
2014,05,23,08,52,6.00
2014,05,23,08,53,6.00
2014,05,23,08,54,6.00
2014,05,23,08,55,6.00
2014,05,23,08,56,6.00
2014,05,23,08,57,6.00
2014,05,23,08,58,6.00
2014,05,23,08,59,6.00
2014,05,23,09,00,6.00
2014,05,23,09,04,6.40
2014,05,23,09,05,6.40
2014,05,23,09,06,6.40
2014,05,23,09,07,6.40
2014,05,23,09,08,6.40
2014,05,23,09,09,6.40
2014,05,23,09,10,6.40
2014,05,23,09,11,6.40
2014,05,23,09,12,6.40
2014,05,23,09,13,6.40
2014,05,23,09,14,6.40
2014,05,23,09,15,6.40
2014,05,23,09,19,6.90
2014,05,23,09,20,6.90
2014,05,23,09,21,6.90
2014,05,23,09,22,6.90
2014,05,23,09,23,6.90
2014,05,23,09,24,6.90
2014,05,23,09,25,6.90
2014,05,23,09,26,6.90
2014,05,23,09,27,6.90
2014,05,23,09,28,6.90
2014,05,23,09,29,6.90
2014,05,23,09,30,6.90
2014,05,23,09,34,7.40
2014,05,23,09,35,7.40
2014,05,23,09,36,7.40
2014,05,23,09,37,7.40
2014,05,23,09,38,7.40
2014,05,23,09,39,7.40
2014,05,23,09,40,7.40
2014,05,23,09,41,7.40
2014,05,23,09,42,7.40
2014,05,23,09,43,7.40
2014,05,23,09,44,7.40
2014,05,23,09,45,7.40
2014,05,23,09,49,7.00
2014,05,23,09,50,7.00
2014,05,23,09,51,7.00
2014,05,23,09,52,7.00
2014,05,23,09,53,7.00
2014,05,23,09,54,7.00
2014,05,23,09,55,7.00
2014,05,23,09,56,7.00
2014,05,23,09,57,7.00
2014,05,23,09,58,7.00
2014,05,23,09,59,7.00
2014,05,23,10,00,7.00
2014,05,23,10,04,6.90
2014,05,23,10,05,6.90
2014,05,23,10,06,6.90
2014,05,23,10,07,6.90
2014,05,23,10,08,6.90
2014,05,23,10,09,6.90
2014,05,23,10,10,6.90
2014,05,23,10,11,6.90
2014,05,23,10,12,6.90
2014,05,23,10,13,6.90
2014,05,23,10,14,6.90
2014,05,23,10,15,6.90
2014,05,23,10,19,7.40
2014,05,23,10,20,7.40
2014,05,23,10,21,7.40
2014,05,23,10,22,7.40
2014,05,23,10,23,7.40
2014,05,23,10,24,7.40
2014,05,23,10,25,7.40
2014,05,23,10,26,7.40
2014,05,23,10,27,7.40
2014,05,23,10,28,7.40
2014,05,23,10,29,7.40
2014,05,23,10,30,7.40
2014,05,23,10,34,7.20
2014,05,23,10,35,7.20
2014,05,23,10,36,7.20
2014,05,23,10,37,7.20
2014,05,23,10,38,7.20
2014,05,23,10,39,7.20
2014,05,23,10,40,7.20
2014,05,23,10,41,7.20
2014,05,23,10,42,7.20
2014,05,23,10,43,7.20
2014,05,23,10,44,7.20
2014,05,23,10,45,7.20
2014,05,23,10,49,8.00
2014,05,23,10,50,8.00
2014,05,23,10,51,8.00
2014,05,23,10,52,8.00
2014,05,23,10,53,8.00
2014,05,23,10,54,8.00
2014,05,23,10,55,8.00
2014,05,23,10,56,8.00
2014,05,23,10,57,8.00
2014,05,23,10,58,8.00
2014,05,23,10,59,8.00
2014,05,23,11,00,8.00
2014,05,23,11,04,7.80
2014,05,23,11,05,7.80
2014,05,23,11,06,7.80
2014,05,23,11,07,7.80
2014,05,23,11,08,7.80
2014,05,23,11,09,7.80
2014,05,23,11,10,7.80
2014,05,23,11,11,7.80
2014,05,23,11,12,7.80
2014,05,23,11,13,7.80
2014,05,23,11,14,7.80
2014,05,23,11,15,7.80
2014,05,23,11,19,8.00
2014,05,23,11,20,8.00
2014,05,23,11,21,8.00
2014,05,23,11,22,8.00
2014,05,23,11,23,8.00
2014,05,23,11,24,8.00
2014,05,23,11,25,8.00
2014,05,23,11,26,8.00
2014,05,23,11,27,8.00
2014,05,23,11,28,8.00
2014,05,23,11,29,8.00
2014,05,23,11,30,8.00
2014,05,23,11,34,8.90
2014,05,23,11,35,8.90
2014,05,23,11,36,8.90
2014,05,23,11,37,8.90
2014,05,23,11,38,8.90
2014,05,23,11,39,8.90
2014,05,23,11,40,8.90
2014,05,23,11,41,8.90
2014,05,23,11,42,8.90
2014,05,23,11,43,8.90
2014,05,23,11,44,8.90
2014,05,23,11,45,8.90
2014,05,23,11,49,9.60
2014,05,23,11,50,9.60
2014,05,23,11,51,9.60
2014,05,23,11,52,9.60
2014,05,23,11,53,9.60
2014,05,23,11,54,9.60
2014,05,23,11,55,9.60
2014,05,23,11,56,9.60
2014,05,23,11,57,9.60
2014,05,23,11,58,9.60
2014,05,23,11,59,9.60
2014,05,23,12,00,9.60
2014,05,23,12,04,9.00
2014,05,23,12,05,9.00
2014,05,23,12,06,9.00
2014,05,23,12,07,9.00
2014,05,23,12,08,9.00
2014,05,23,12,09,9.00
2014,05,23,12,10,9.00
2014,05,23,12,11,9.00
2014,05,23,12,12,9.00
2014,05,23,12,13,9.00
2014,05,23,12,14,9.00
2014,05,23,12,15,9.00
2014,05,23,12,19,9.20
2014,05,23,12,20,9.20
2014,05,23,12,21,9.20
2014,05,23,12,22,9.20
2014,05,23,12,23,9.20
2014,05,23,12,24,9.20
2014,05,23,12,25,9.20
2014,05,23,12,26,9.20
2014,05,23,12,27,9.20
2014,05,23,12,28,9.20
2014,05,23,12,29,9.20
2014,05,23,12,30,9.20
2014,05,23,12,34,9.10
2014,05,23,12,35,9.10
2014,05,23,12,36,9.10
2014,05,23,12,37,9.10
2014,05,23,12,38,9.10
2014,05,23,12,39,9.10
2014,05,23,12,40,9.10
2014,05,23,12,41,9.10
2014,05,23,12,42,9.10
2014,05,23,12,43,9.10
2014,05,23,12,44,9.10
2014,05,23,12,45,9.10
2014,05,23,12,49,7.80
2014,05,23,12,50,7.80
2014,05,23,12,51,7.80
2014,05,23,12,52,7.80
2014,05,23,12,53,7.80
2014,05,23,12,54,7.80
2014,05,23,12,55,7.80
2014,05,23,12,56,7.80
2014,05,23,12,57,7.80
2014,05,23,12,58,7.80
2014,05,23,12,59,7.80
2014,05,23,13,00,7.80
2014,05,23,13,04,9.10
2014,05,23,13,05,9.10
2014,05,23,13,06,9.10
2014,05,23,13,07,9.10
2014,05,23,13,08,9.10
2014,05,23,13,09,9.10
2014,05,23,13,10,9.10
2014,05,23,13,11,9.10
2014,05,23,13,12,9.10
2014,05,23,13,13,9.10
2014,05,23,13,14,9.10
2014,05,23,13,15,9.10
2014,05,23,13,19,8.40
2014,05,23,13,20,8.40
2014,05,23,13,21,8.40
2014,05,23,13,22,8.40
2014,05,23,13,23,8.40
2014,05,23,13,24,8.40
2014,05,23,13,25,8.40
2014,05,23,13,26,8.40
2014,05,23,13,27,8.40
2014,05,23,13,28,8.40
2014,05,23,13,29,8.40
2014,05,23,13,30,8.40
2014,05,23,13,34,8.80
2014,05,23,13,35,8.80
2014,05,23,13,36,8.80
2014,05,23,13,37,8.80
2014,05,23,13,38,8.80
2014,05,23,13,39,8.80
2014,05,23,13,40,8.80
2014,05,23,13,41,8.80
2014,05,23,13,42,8.80
2014,05,23,13,43,8.80
2014,05,23,13,44,8.80
2014,05,23,13,45,8.80
2014,05,23,13,49,9.60
2014,05,23,13,50,9.60
2014,05,23,13,51,9.60
2014,05,23,13,52,9.60
2014,05,23,13,53,9.60
2014,05,23,13,54,9.60
2014,05,23,13,55,9.60
2014,05,23,13,56,9.60
2014,05,23,13,57,9.60
2014,05,23,13,58,9.60
2014,05,23,13,59,9.60
2014,05,23,14,00,9.60
2014,05,23,14,04,8.30
2014,05,23,14,05,8.30
2014,05,23,14,06,8.30
2014,05,23,14,07,8.30
2014,05,23,14,08,8.30
2014,05,23,14,09,8.30
2014,05,23,14,10,8.30
2014,05,23,14,11,8.30
2014,05,23,14,12,8.30
2014,05,23,14,13,8.30
2014,05,23,14,14,8.30
2014,05,23,14,15,8.30
2014,05,23,14,19,7.90
2014,05,23,14,20,7.90
2014,05,23,14,21,7.90
2014,05,23,14,22,7.90
2014,05,23,14,23,7.90
2014,05,23,14,24,7.90
2014,05,23,14,25,7.90
2014,05,23,14,26,7.90
2014,05,23,14,27,7.90
2014,05,23,14,28,7.90
2014,05,23,14,29,7.90
2014,05,23,14,30,7.90
2014,05,23,14,34,7.70
2014,05,23,14,35,7.70
2014,05,23,14,36,7.70
2014,05,23,14,37,7.70
2014,05,23,14,38,7.70
2014,05,23,14,39,7.70
2014,05,23,14,40,7.70
2014,05,23,14,41,7.70
2014,05,23,14,42,7.70
2014,05,23,14,43,7.70
2014,05,23,14,44,7.70
2014,05,23,14,45,7.70
2014,05,23,14,49,7.70
2014,05,23,14,50,7.70
2014,05,23,14,51,7.70
2014,05,23,14,52,7.70
2014,05,23,14,53,7.70
2014,05,23,14,54,7.70
2014,05,23,14,55,7.70
2014,05,23,14,56,7.70
2014,05,23,14,57,7.70
2014,05,23,14,58,7.70
2014,05,23,14,59,7.70
2014,05,23,15,00,7.70
2014,05,23,15,04,7.60
2014,05,23,15,05,7.60
2014,05,23,15,06,7.60
2014,05,23,15,07,7.60
2014,05,23,15,08,7.60
2014,05,23,15,09,7.60
2014,05,23,15,10,7.60
2014,05,23,15,11,7.60
2014,05,23,15,12,7.60
2014,05,23,15,13,7.60
2014,05,23,15,14,7.60
2014,05,23,15,15,7.60
2014,05,23,15,19,8.00
2014,05,23,15,20,8.00
2014,05,23,15,21,8.00
2014,05,23,15,22,8.00
2014,05,23,15,23,8.00
2014,05,23,15,24,8.00
2014,05,23,15,25,8.00
2014,05,23,15,26,8.00
2014,05,23,15,27,8.00
2014,05,23,15,28,8.00
2014,05,23,15,29,8.00
2014,05,23,15,30,8.00
2014,05,23,15,34,7.80
2014,05,23,15,35,7.80
2014,05,23,15,36,7.80
2014,05,23,15,37,7.80
2014,05,23,15,38,7.80
2014,05,23,15,39,7.80
2014,05,23,15,40,7.80
2014,05,23,15,41,7.80
2014,05,23,15,42,7.80
2014,05,23,15,43,7.80
2014,05,23,15,44,7.80
2014,05,23,15,45,7.80
2014,05,23,15,49,8.10
2014,05,23,15,50,8.10
2014,05,23,15,51,8.10
2014,05,23,15,52,8.10
2014,05,23,15,53,8.10
2014,05,23,15,54,8.10
2014,05,23,15,55,8.10
2014,05,23,15,56,8.10
2014,05,23,15,57,8.10
2014,05,23,15,58,8.10
2014,05,23,15,59,8.10
2014,05,23,16,00,8.10
2014,05,23,16,04,8.30
2014,05,23,16,05,8.30
2014,05,23,16,06,8.30
2014,05,23,16,07,8.30
2014,05,23,16,08,8.30
2014,05,23,16,09,8.30
2014,05,23,16,10,8.30
2014,05,23,16,11,8.30
2014,05,23,16,12,8.30
2014,05,23,16,13,8.30
2014,05,23,16,14,8.30
2014,05,23,16,15,8.30
2014,05,23,16,19,8.10
2014,05,23,16,20,8.10
2014,05,23,16,21,8.10
2014,05,23,16,22,8.10
2014,05,23,16,23,8.10
2014,05,23,16,24,8.10
2014,05,23,16,25,8.10
2014,05,23,16,26,8.10
2014,05,23,16,27,8.10
2014,05,23,16,28,8.10
2014,05,23,16,29,8.10
2014,05,23,16,30,8.10
2014,05,23,16,34,7.50
2014,05,23,16,35,7.50
2014,05,23,16,36,7.50
2014,05,23,16,37,7.50
2014,05,23,16,38,7.50
2014,05,23,16,39,7.50
2014,05,23,16,40,7.50
2014,05,23,16,41,7.50
2014,05,23,16,42,7.50
2014,05,23,16,43,7.50
2014,05,23,16,44,7.50
2014,05,23,16,45,7.50
2014,05,23,16,49,8.00
2014,05,23,16,50,8.00
2014,05,23,16,51,8.00
2014,05,23,16,52,8.00
2014,05,23,16,53,8.00
2014,05,23,16,54,8.00
2014,05,23,16,55,8.00
2014,05,23,16,56,8.00
2014,05,23,16,57,8.00
2014,05,23,16,58,8.00
2014,05,23,16,59,8.00
2014,05,23,17,00,8.00
2014,05,23,17,04,8.30
2014,05,23,17,05,8.30
2014,05,23,17,06,8.30
2014,05,23,17,07,8.30
2014,05,23,17,08,8.30
2014,05,23,17,09,8.30
2014,05,23,17,10,8.30
2014,05,23,17,11,8.30
2014,05,23,17,12,8.30
2014,05,23,17,13,8.30
2014,05,23,17,14,8.30
2014,05,23,17,15,8.30
2014,05,23,17,19,8.20
2014,05,23,17,20,8.20
2014,05,23,17,21,8.20
2014,05,23,17,22,8.20
2014,05,23,17,23,8.20
2014,05,23,17,24,8.20
2014,05,23,17,25,8.20
2014,05,23,17,26,8.20
2014,05,23,17,27,8.20
2014,05,23,17,28,8.20
2014,05,23,17,29,8.20
2014,05,23,17,30,8.20
2014,05,23,17,34,6.80
2014,05,23,17,35,6.80
2014,05,23,17,36,6.80
2014,05,23,17,37,6.80
2014,05,23,17,38,6.80
2014,05,23,17,39,6.80
2014,05,23,17,40,6.80
2014,05,23,17,41,6.80
2014,05,23,17,42,6.80
2014,05,23,17,43,6.80
2014,05,23,17,44,6.80
2014,05,23,17,45,6.80
2014,05,23,17,49,6.20
2014,05,23,17,50,6.20
2014,05,23,17,51,6.20
2014,05,23,17,52,6.20
2014,05,23,17,53,6.20
2014,05,23,17,54,6.20
2014,05,23,17,55,6.20
2014,05,23,17,56,6.20
2014,05,23,17,57,6.20
2014,05,23,17,58,6.20
2014,05,23,17,59,6.20
2014,05,23,18,00,6.20
2014,05,23,18,04,6.80
2014,05,23,18,05,6.80
2014,05,23,18,06,6.80
2014,05,23,18,07,6.80
2014,05,23,18,08,6.80
2014,05,23,18,09,6.80
2014,05,23,18,10,6.80
2014,05,23,18,11,6.80
2014,05,23,18,12,6.80
2014,05,23,18,13,6.80
2014,05,23,18,14,6.80
2014,05,23,18,15,6.80
2014,05,23,18,19,7.80
2014,05,23,18,20,7.80
2014,05,23,18,21,7.80
2014,05,23,18,22,7.80
2014,05,23,18,23,7.80
2014,05,23,18,24,7.80
2014,05,23,18,25,7.80
2014,05,23,18,26,7.80
2014,05,23,18,27,7.80
2014,05,23,18,28,7.80
2014,05,23,18,29,7.80
2014,05,23,18,30,7.80
2014,05,23,18,34,6.80
2014,05,23,18,35,6.80
2014,05,23,18,36,6.80
2014,05,23,18,37,6.80
2014,05,23,18,38,6.80
2014,05,23,18,39,6.80
2014,05,23,18,40,6.80
2014,05,23,18,41,6.80
2014,05,23,18,42,6.80
2014,05,23,18,43,6.80
2014,05,23,18,44,6.80
2014,05,23,18,45,6.80
2014,05,23,18,49,6.90
2014,05,23,18,50,6.90
2014,05,23,18,51,6.90
2014,05,23,18,52,6.90
2014,05,23,18,53,6.90
2014,05,23,18,54,6.90
2014,05,23,18,55,6.90
2014,05,23,18,56,6.90
2014,05,23,18,57,6.90
2014,05,23,18,58,6.90
2014,05,23,18,59,6.90
2014,05,23,19,00,6.90
2014,05,23,19,04,6.40
2014,05,23,19,05,6.40
2014,05,23,19,06,6.40
2014,05,23,19,07,6.40
2014,05,23,19,08,6.40
2014,05,23,19,09,6.40
2014,05,23,19,10,6.40
2014,05,23,19,11,6.40
2014,05,23,19,12,6.40
2014,05,23,19,13,6.40
2014,05,23,19,14,6.40
2014,05,23,19,15,6.40
2014,05,23,19,19,6.90
2014,05,23,19,20,6.90
2014,05,23,19,21,6.90
2014,05,23,19,22,6.90
2014,05,23,19,23,6.90
2014,05,23,19,24,6.90
2014,05,23,19,25,6.90
2014,05,23,19,26,6.90
2014,05,23,19,27,6.90
2014,05,23,19,28,6.90
2014,05,23,19,29,6.90
2014,05,23,19,30,6.90
2014,05,23,19,34,7.30
2014,05,23,19,35,7.30
2014,05,23,19,36,7.30
2014,05,23,19,37,7.30
2014,05,23,19,38,7.30
2014,05,23,19,39,7.30
2014,05,23,19,40,7.30
2014,05,23,19,41,7.30
2014,05,23,19,42,7.30
2014,05,23,19,43,7.30
2014,05,23,19,44,7.30
2014,05,23,19,45,7.30
2014,05,23,19,49,7.30
2014,05,23,19,50,7.30
2014,05,23,19,51,7.30
2014,05,23,19,52,7.30
2014,05,23,19,53,7.30
2014,05,23,19,54,7.30
2014,05,23,19,55,7.30
2014,05,23,19,56,7.30
2014,05,23,19,57,7.30
2014,05,23,19,58,7.30
2014,05,23,19,59,7.30
2014,05,23,20,00,7.30
2014,05,23,20,04,6.30
2014,05,23,20,05,6.30
2014,05,23,20,06,6.30
2014,05,23,20,07,6.30
2014,05,23,20,08,6.30
2014,05,23,20,09,6.30
2014,05,23,20,10,6.30
2014,05,23,20,11,6.30
2014,05,23,20,12,6.30
2014,05,23,20,13,6.30
2014,05,23,20,14,6.30
2014,05,23,20,15,6.30
2014,05,23,20,19,5.60
2014,05,23,20,20,5.60
2014,05,23,20,21,5.60
2014,05,23,20,22,5.60
2014,05,23,20,23,5.60
2014,05,23,20,24,5.60
2014,05,23,20,25,5.60
2014,05,23,20,26,5.60
2014,05,23,20,27,5.60
2014,05,23,20,28,5.60
2014,05,23,20,29,5.60
2014,05,23,20,30,5.60
2014,05,23,20,34,5.20
2014,05,23,20,35,5.20
2014,05,23,20,36,5.20
2014,05,23,20,37,5.20
2014,05,23,20,38,5.20
2014,05,23,20,39,5.20
2014,05,23,20,40,5.20
2014,05,23,20,41,5.20
2014,05,23,20,42,5.20
2014,05,23,20,43,5.20
2014,05,23,20,44,5.20
2014,05,23,20,45,5.20
2014,05,23,20,49,4.90
2014,05,23,20,50,4.90
2014,05,23,20,51,4.90
2014,05,23,20,52,4.90
2014,05,23,20,53,4.90
2014,05,23,20,54,4.90
2014,05,23,20,55,4.90
2014,05,23,20,56,4.90
2014,05,23,20,57,4.90
2014,05,23,20,58,4.90
2014,05,23,20,59,4.90
2014,05,23,21,00,4.90
2014,05,23,21,04,4.80
2014,05,23,21,05,4.80
2014,05,23,21,06,4.80
2014,05,23,21,07,4.80
2014,05,23,21,08,4.80
2014,05,23,21,09,4.80
2014,05,23,21,10,4.80
2014,05,23,21,11,4.80
2014,05,23,21,12,4.80
2014,05,23,21,13,4.80
2014,05,23,21,14,4.80
2014,05,23,21,15,4.80
2014,05,23,21,19,4.60
2014,05,23,21,20,4.60
2014,05,23,21,21,4.60
2014,05,23,21,22,4.60
2014,05,23,21,23,4.60
2014,05,23,21,24,4.60
2014,05,23,21,25,4.60
2014,05,23,21,26,4.60
2014,05,23,21,27,4.60
2014,05,23,21,28,4.60
2014,05,23,21,29,4.60
2014,05,23,21,30,4.60
2014,05,23,21,34,4.70
2014,05,23,21,35,4.70
2014,05,23,21,36,4.70
2014,05,23,21,37,4.70
2014,05,23,21,38,4.70
2014,05,23,21,39,4.70
2014,05,23,21,40,4.70
2014,05,23,21,41,4.70
2014,05,23,21,42,4.70
2014,05,23,21,43,4.70
2014,05,23,21,44,4.70
2014,05,23,21,45,4.70
2014,05,23,21,49,4.40
2014,05,23,21,50,4.40
2014,05,23,21,51,4.40
2014,05,23,21,52,4.40
2014,05,23,21,53,4.40
2014,05,23,21,54,4.40
2014,05,23,21,55,4.40
2014,05,23,21,56,4.40
2014,05,23,21,57,4.40
2014,05,23,21,58,4.40
2014,05,23,21,59,4.40
2014,05,23,22,00,4.40
2014,05,23,22,04,4.20
2014,05,23,22,05,4.20
2014,05,23,22,06,4.20
2014,05,23,22,07,4.20
2014,05,23,22,08,4.20
2014,05,23,22,09,4.20
2014,05,23,22,10,4.20
2014,05,23,22,11,4.20
2014,05,23,22,12,4.20
2014,05,23,22,13,4.20
2014,05,23,22,14,4.20
2014,05,23,22,15,4.20
2014,05,23,22,19,4.10
2014,05,23,22,20,4.10
2014,05,23,22,21,4.10
2014,05,23,22,22,4.10
2014,05,23,22,23,4.10
2014,05,23,22,24,4.10
2014,05,23,22,25,4.10
2014,05,23,22,26,4.10
2014,05,23,22,27,4.10
2014,05,23,22,28,4.10
2014,05,23,22,29,4.10
2014,05,23,22,30,4.10
2014,05,23,22,34,3.90
2014,05,23,22,35,3.90
2014,05,23,22,36,3.90
2014,05,23,22,37,3.90
2014,05,23,22,38,3.90
2014,05,23,22,39,3.90
2014,05,23,22,40,3.90
2014,05,23,22,41,3.90
2014,05,23,22,42,3.90
2014,05,23,22,43,3.90
2014,05,23,22,44,3.90
2014,05,23,22,45,3.90
2014,05,23,22,49,3.70
2014,05,23,22,50,3.70
2014,05,23,22,51,3.70